sat.trackr.live / text

‹ back to catalog

QIANFAN-16

NORAD 60394 · 2024-140R

PAYLOAD ACTIVE UNKNOWN

§ Identity

Operator
Country
PRC
Launch date
2024-08-06
Launch site
TAISC
Launch vehicle
Mass (kg)
RCS (m²)

External: N2YO · Heavens-Above · Gunter

§ Orbital elements

Epoch: 2026-09-22T20:14:22.826400Z

Period
106.59 min
Inclination
88.9664°
Eccentricity
0.0016622
Mean motion
13.51025321 rev/d
Perigee alt
1,056.1 km
Apogee alt
1,080.9 km
Semi-major
7,446.6 km
B*
2.0417e-5
RAAN
269.8924°
Arg perigee
108.9505°
Mean anomaly
251.3449°
Rev number
10,553

§ Raw data

QIANFAN-161 60394U 24140R   26265.84331975  .00000025  00000+0  20417-4 0  99982 60394  88.9664 269.8924 0016622 108.9505 251.3449 13.51025321105535

JSON: /api/v1/satellites/60394 · /tle

For live sub-satellite position, see the globe view (requires WebGL).

§ Visibility from observer

Set your observer location to see the next 7 days of passes ≥ 10°. The values pass through the URL so the page stays shareable.

No JS? Fill the form by hand. The geolocation button needs JavaScript.